Location: *
(44.1392°N, 4.8079°E)
Time: 07:18:51
(UTC+00:00)

COSMOS 2406 - Pass Details

Date: 21 June 2021
Orbit: 843 x 864 km, 71.0° (Epoch: 01 August)

Event Time Altitude Azimuth Distance (km) Brightness Sun altitude
Exits shadow 03:15:11 - 203° (SSW) 2,887 5.4 -6.8°
Reaches altitude 10° 03:16:18 10° 203° (SSW) 2,456 5.1 -6.6°
Maximum altitude 03:21:57 89° 122° (ESE) 850 3.3 -5.9°
Drops below altitude 10° 03:27:39 10° 26° (NNE) 2,474 6.9 -5.1°
Sets 03:30:06 0° 26° (NNE) 3,415 7.8 -4.7°
